Regional Weather Roundup
Issued by NWS

Home | Current Version | Previous Version | Graphics & Text | Print | Product List | Glossary Off
Versions: 1 2 3 4 5 6 7 8 9 10 11 12 13 14 15 16 17 18 19 20 21 22 23 24 25 26 27 28 29 30 31 32 33 34 35 36 37 38 39 40 41 42 43 44 45 46 47 48 49 50

000
ASUS43 KLSX 202307
RWRMO

WEATHER SUMMARY FOR MISSOURI
NATIONAL WEATHER SERVICE SPRINGFIELD MO
600 PM CDT SAT SEP 20 2014

NOTE: "FAIR" INDICATES FEW OR NO CLOUDS BELOW 12,000 FEET WITH NO
       SIGNIFICANT WEATHER AND/OR OBSTRUCTIONS TO VISIBILITY.
       CURRENT SKY AND/OR WEATHER CONDITIONS ARE NOT AVAILABLE FOR
       CHILLICOTHE AND FARMINGTON.

MOZ001>031-035>038-043-044-053-054-210000-
...NORTHERN AND WESTERN MISSOURI...

CITY           SKY/WX    TMP DP  RH WIND       PRES   REMARKS
KANSAS CTY INT MOSUNNY   81  71  71 W9        29.93S
KANSAS C DTWN  PTSUNNY   83  70  64 SW7       29.90F
LEE`S SUMMIT   CLOUDY    80  69  69 S8        29.93F
ST JOSEPH      SUNNY     82  69  64 W12       29.92R
CHILLICOTHE      N/A     83  71  67 SW7       29.90F
KIRKSVILLE     SUNNY     79  71  76 W5        29.90F

$$
MOZ066>068-077>081-088>096-101>105-210000-
...SOUTHWEST MISSOURI...

CITY           SKY/WX    TMP DP  RH WIND       PRES   REMARKS
SPRINGFIELD    MOSUNNY   82  67  60 W9        30.01R
JOPLIN         MOSUNNY   83  69  62 SW9       30.00R

$$
MOZ032>034-039>042-045>050-055>058-069>072-210000-
...CENTRAL MISSOURI...

CITY           SKY/WX    TMP DP  RH WIND       PRES   REMARKS
COLUMBIA       PTSUNNY   81  70  69 SW9       29.95S
JEFFERSON CITY PTSUNNY   84  68  58 W6        29.93S
ROLLA          MOSUNNY   80  67  64 SW6       29.95S
SEDALIA        CLOUDY    80  70  71 SW6       29.95F
WHITEMAN AFB   CLOUDY    79  72  79 SW8       29.93F
OSAGE BEACH    CLOUDY    81  68  65 SW5       29.96S

$$
MOZ051-052-059>065-210000-
...EAST CENTRAL MISSOURI...

CITY           SKY/WX    TMP DP  RH WIND       PRES   REMARKS
ST LOUIS INTL  NOT AVBL
SPIRIT OF STL  PTSUNNY   83  68  60 SW6       29.90S
ST CHARLES     PTSUNNY   85  68  56 W7        29.89S

$$
MOZ072>076-082>087-097>100-106>115-210000-
...SOUTH CENTRAL AND SOUTHEAST MISSOURI...

CITY           SKY/WX    TMP DP  RH WIND       PRES   REMARKS
CAPE GIRARDEAU SUNNY     82  69  64 SW6       29.95F
FARMINGTON     MOSUNNY   82  66  57 SW9       29.97F
POPLAR BLUFF   SUNNY     84  66  54 SW7       29.95S
WEST PLAINS    SUNNY     83  67  58 SW6       30.02R

$$



USA.gov is the U.S. government's official web portal to all federal, state and local government web resources and services.